Tracking 29892 objects as of 21-Nov-2024
HD Live streaming from Space Station
objects crossing your sky now

STARLINK-3208

Track STARLINK-3208 now!
10-day predictions
STARLINK-3208 is classified as:


NORAD ID: 49769
Int'l Code: 2021-115AX
Perigee: 546.0 km
Apogee: 547.8 km
Inclination: 53.2 °
Period: 95.4 minutes
Semi major axis: 6917 km
RCS: Unknown
Launch date: December 2, 2021
Source: United States (US)
Launch site: AIR FORCE EASTERN TEST RANGE (AFETR)
Your satellite tracking list
Your tracking list is empty




NASA's NSSDC Master Catalog

Two Line Element Set (TLE):
1 49769U 21115AX  24325.78081293  .00000799  00000-0  68287-4 0  9999
2 49769  53.2158 106.6283 0001306  83.8314 276.2827 15.08840663164134
Source of the keplerian elements: AFSPC